Regional Weather Roundup
Issued by NWS Bismarck, ND

Home | Current Version | Previous Version | Text Only | Print | Product List | Glossary On
Versions: 1 2 3 4 5 6 7 8 9 10 11 12 13 14 15 16 17 18 19 20 21 22 23 24 25 26 27 28 29 30 31 32 33 34 35 36 37 38 39 40 41 42 43 44 45 46 47 48 49 50
000
ASUS43 KBIS 281402
RWRBIS

NWR BROADCAST TEXT
NATIONAL WEATHER SERVICE BISMARCK ND
900 AM CDT SAT MAY 28 2016

NOTE: "FAIR" INDICATES FEW OR NO CLOUDS BELOW 12,000 FEET WITH NO
SIGNIFICANT WEATHER AND/OR OBSTRUCTIONS TO VISIBILITY.


CITY           SKY/WX    TMP DP  RH WIND       PRES   REMARKS
WILLISTON      CLOUDY    57  52  83 E9        29.89S
MINOT          CLOUDY    58  53  84 N8        29.89S
MINOT AFB      CLOUDY    54  52  91 NE7       29.89S
BISMARCK       CLOUDY    59  55  87 NE8       29.88R
DICKINSON      MOSUNNY   52  49  89 E5        29.87R
GARRISON         N/A     58  54  86 E7        29.88S
HETTINGER ARPT PTSUNNY   61  51  70 W5        29.89R
JAMESTOWN      CLOUDY    62  58  86 N12       29.84R
CARRINGTON     CLOUDY    57  55  94 N10       29.89S FOG
HAZEN          CLOUDY    57  55  94 E6        29.90S FOG
MANDAN         CLOUDY    57  55  94 NE8       29.89R
OAKES            N/A    N/A N/A N/A MISG        N/A
STANLEY        CLOUDY    52  52 100 E7        29.93R FOG
$$

CITY           SKY/WX    TMP DP  RH WIND       PRES   REMARKS
GRAND FORKS    MOSUNNY   68  54  60 CALM      29.82F
GRAND FORKS AF SUNNY     67  56  70 VRB2      29.83F
DEVILS LAKE    CLOUDY    57  55  93 N6        29.88S
FARGO          MOSUNNY   65  57  75 NE6       29.81R
CAVALIER       FAIR      61  61 100 N6        29.86S
GRAFTON        FAIR      64  59  82 W5        29.85F
GWINNER        CLOUDY    61  59  94 N7        29.83R
LANGDON        FOG       55  55 100 N8        29.88S VSB 1/4
$$

CITY           SKY/WX    TMP DP  RH WIND       PRES   REMARKS
ABERDEEN       CLOUDY    62  59  90 NE9       29.81R FOG
MOBRIDGE       MOSUNNY   61  52  72 NW8       29.82R
BUFFALO          N/A     58  48  69 CALM      29.83R
RAPID CITY     SUNNY     61  47  59 CALM      29.90S
GLASGOW        RAIN      52  52 100 S6        29.88R FOG
SIDNEY         CLOUDY    58  54  86 E9        29.88S
WOLF POINT     CLOUDY    59  53  80 E6        29.87S
GLENDIVE       CLOUDY    54  52  94 E6        29.90R
MILES CITY     CLOUDY    54  50  86 W12       29.90R
BAKER          MOSUNNY   60  47  61 W6        29.89R
$$

CITY           SKY/WX    TMP DP  RH WIND       PRES   REMARKS
BILLINGS       CLOUDY    52  44  74 W6        29.98S
GREAT FALLS    SUNNY     48  34  58 SW12      29.97R
$$




USA.gov is the U.S. government's official web portal to all federal, state and local government web resources and services.